Location: Peach Mountain Observatory
(42.3967°N, 83.9367°W)
Time: 08:30:26
(UTC-05:00)

Explorer 7 - Pass Details

Date: 24 January 2020
Orbit: 485 x 679 km, 50.3° (Epoch: 25 February)

Event Time Altitude Azimuth Distance (km) Brightness Sun altitude
Exits shadow 06:39:11 19° 248° (WSW) 1,296 8.2 -14.4°
Maximum altitude 06:40:19 22° 225° (SW) 1,218 8.3 -14.2°
Drops below altitude 10° 06:43:32 10° 174° (S) 1,840 9.7 -13.6°
Sets 06:46:14 0° 159° (SSE) 2,774 10.9 -13.1°
